[[{"header":{"parameterUnit":"m.s-1","parameterCategory":2,"la1":30.2992,"la2":30.254,"lo1":-89.0895,"lo2":-89.0443,"dy":0.0025,"dx":0.0025,"nx":19,"ny":19,"refTime":"2026-04-05T21:00:00:Z","depth":"0","parameterNumber":2,"parameterNumberName":"U-component_of_CURRENTS"},"data":[0,0,0,0.2216,0.2217,0.2241,0.2241,0.2253,0.2253,0,0,0,0,0,0,0,0,0,0,0,0.2199,0.2199,0.2216,0.2217,0.2241,0.2241,0.2253,0.2253,0,0,0,0,0,0,0,0,0,0,0,0.2199,0.2199,0.2199,0.2217,0.2241,0.2241,0.2253,0.2236,0,0,0,0,0,0,0,0,0,0,0.2214,0.2202,0.2199,0.2199,0.2218,0.2241,0.2241,0.2235,0.2237,0.224,0,0.2248,0,0.2261,0.2254,0.2254,0,0,0,0.2204,0.22,0.2215,0.2199,0.2218,0.2241,0.2227,0.2236,0.2238,0.2243,0.2248,0.2249,0.2261,0.2255,0.2255,0.2316,0.2317,0,0,0.2203,0.2195,0.2213,0.2216,0.223,0.2226,0.2228,0.2238,0.2237,0.2248,0.225,0.2261,0.2255,0.2255,0.2316,0.2316,0,0,0,0.2208,0.2194,0.2207,0.2215,0.2227,0.2227,0.2229,0.2236,0.2243,0.225,0.2261,0.2255,0.2255,0.2315,0.2316,0.2352,0,0,0,0.2206,0.2198,0.2207,0.2201,0.2227,0.2235,0.2227,0.2242,0.2244,0.2261,0.2255,0.2255,0.2315,0.2316,0.235,0.236,0,0,0,0.2197,0.2197,0.2203,0.2201,0.2219,0.2235,0.2242,0.2242,0.2252,0.2255,0.2255,0.2314,0.2315,0.2348,0.2357,0.2417,0,0,0,0.2183,0.219,0.2202,0.2218,0.2219,0.2256,0.2242,0.2253,0.2256,0.2255,0.2315,0.2316,0.2348,0.2355,0.2414,0.2414,0.2426,0,0,0.2185,0.219,0.2201,0.2213,0.2245,0.2251,0.2292,0.2281,0.2278,0.2306,0.2308,0.2351,0.2357,0.2416,0.2483,0.2493,0,0,0,0.2197,0.2204,0.2216,0.2238,0.2267,0.2299,0.2304,0.2318,0.234,0.229,0.2365,0.2368,0.2404,0.2399,0.2407,0.2407,0.2321,0.2321,0.2321,0.2174,0.22,0.2218,0.2255,0.2287,0.2331,0.2362,0.2385,0.2375,0.2396,0.2408,0.2491,0.2486,0.2492,0.2492,0.2424,0.2424,0.2424,0.2424,0.2169,0.2173,0.222,0.2245,0.2295,0.2336,0.2416,0.2427,0.2497,0.2461,0.2496,0.245,0.2503,0.2499,0.2427,0.2426,0.2426,0.2426,0.2426,0.2139,0.2142,0.2167,0.2208,0.2261,0.233,0.2411,0.2474,0.2523,0.2562,0.2574,0.2573,0.2562,0.2588,0.2588,0.2588,0.2589,0.2589,0.2589,0.2083,0.2111,0.2122,0.217,0.2197,0.2278,0.2407,0.2486,0.2593,0.2617,0.2618,0.2594,0.2541,0.2525,0.2594,0.2593,0.2593,0.2592,0.2592,0.2035,0.2048,0.2061,0.2082,0.2151,0.2186,0.2343,0.2511,0.2617,0.2673,0.2688,0.2658,0.265,0.2643,0.2631,0.2723,0.2723,0.2723,0.2723,0.1992,0.2003,0.2004,0.202,0.2071,0.2143,0.2224,0.2392,0.2608,0.2682,0.2742,0.2696,0.2691,0.2683,0.2675,0.2661,0.276,0.276,0.276,0.1961,0.1969,0.1946,0.1966,0.2013,0.2079,0.2093,0.2223,0.2563,0.2761,0.2747,0.2745,0.2674,0.2666,0.2646,0.2635,0.2609,0,0]},{"header":{"parameterUnit":"m.s-1","parameterCategory":2,"la1":30.2992,"la2":30.254,"lo1":-89.0895,"lo2":-89.0443,"dy":0.0025,"dx":0.0025,"nx":19,"ny":19,"refTime":"2026-04-05T21:00:00:Z","depth":"0","parameterNumber":3,"parameterNumberName":"V-component_of_CURRENTS"},"data":[0,0,0,-0.0167,-0.0167,-0.0201,-0.0201,-0.0243,-0.0244,0,0,0,0,0,0,0,0,0,0,0,-0.0153,-0.0153,-0.0167,-0.0167,-0.0201,-0.0201,-0.0243,-0.0244,0,0,0,0,0,0,0,0,0,0,0,-0.0153,-0.0153,-0.0154,-0.0167,-0.0201,-0.0201,-0.0243,-0.022,0,0,0,0,0,0,0,0,0,0,-0.0188,-0.0171,-0.0153,-0.0154,-0.0167,-0.0201,-0.0201,-0.0219,-0.0221,-0.0225,0,-0.0225,0,-0.0232,-0.0246,-0.0246,0,0,0,-0.0175,-0.0169,-0.0179,-0.0154,-0.0168,-0.0201,-0.0188,-0.022,-0.0223,-0.0229,-0.0225,-0.0227,-0.0233,-0.0246,-0.0246,-0.0229,-0.0229,0,0,-0.0173,-0.0162,-0.0177,-0.018,-0.0169,-0.0187,-0.0189,-0.0222,-0.0221,-0.0225,-0.0228,-0.0234,-0.0246,-0.0246,-0.023,-0.0229,0,0,0,-0.0162,-0.016,-0.0169,-0.0178,-0.0183,-0.0188,-0.019,-0.022,-0.0223,-0.0228,-0.0234,-0.0246,-0.0247,-0.023,-0.023,-0.0158,0,0,0,-0.0162,-0.0154,-0.0168,-0.0162,-0.0182,-0.0202,-0.0187,-0.0221,-0.0225,-0.0234,-0.0246,-0.0247,-0.0231,-0.023,-0.0161,-0.0111,0,0,0,-0.0153,-0.0153,-0.0154,-0.0161,-0.0173,-0.0201,-0.0207,-0.0222,-0.0228,-0.0246,-0.0247,-0.0231,-0.023,-0.0164,-0.0117,-0.0078,0,0,0,-0.0145,-0.0126,-0.0154,-0.0134,-0.0172,-0.016,-0.0206,-0.0209,-0.022,-0.0247,-0.0231,-0.023,-0.0165,-0.012,-0.0081,-0.0018,0.0001,0,0,-0.0112,-0.0122,-0.0108,-0.0134,-0.0097,-0.0157,-0.0126,-0.0167,-0.0207,-0.0222,-0.0222,-0.016,-0.0117,-0.0079,0.0039,0.0057,0,0,0,-0.0092,-0.0078,-0.0072,-0.0061,-0.007,-0.0064,-0.0112,-0.0133,-0.0154,-0.0208,-0.016,-0.0135,-0.0113,-0.0082,-0.0067,-0.0182,-0.0225,-0.0225,-0.0225,-0.0023,-0.0027,0.0012,0.0012,0.0018,-0.0005,-0.0008,-0.0046,-0.0099,-0.0098,-0.0077,0.0003,0.0037,0.0048,-0.0071,-0.0089,-0.0088,-0.0088,-0.0088,0.005,0.0077,0.0078,0.011,0.011,0.0123,0.0091,0.0053,0.0049,-0.001,0.0007,-0.0009,0.0069,-0.0065,-0.0083,-0.0084,-0.0085,-0.0085,-0.0085,0.0106,0.012,0.0131,0.0179,0.0215,0.0198,0.0255,0.0199,0.0128,0.0148,0.0161,0.016,0.0043,0.0148,0.0149,0.0149,0.0149,0.015,0.015,0.0154,0.0171,0.0216,0.0251,0.0291,0.0341,0.0344,0.0352,0.0316,0.0262,0.0262,0.0066,0.0075,0.0066,0.0156,0.0155,0.0154,0.0154,0.0153,0.0225,0.0222,0.0295,0.0339,0.0434,0.0535,0.0531,0.0559,0.0529,0.0527,0.0246,0.0313,0.0298,0.0285,0.0281,0.0422,0.0422,0.0422,0.0422,0.027,0.0274,0.0372,0.0456,0.0565,0.0629,0.0763,0.0753,0.0544,0.0405,0.0289,0.0225,0.0219,0.0193,0.0183,0.0173,0.0283,0.0283,0.0282,0.0324,0.0344,0.0424,0.0494,0.0618,0.0744,0.0864,0.0885,0.0543,0.0259,0.0116,0.0122,0.0006,0.0006,-0.0057,-0.0063,-0.0086,0,0]}],[{"header":{"parameterUnit":"m.s-1","parameterCategory":2,"la1":30.2992,"la2":30.254,"lo1":-89.0895,"lo2":-89.0443,"dy":0.0025,"dx":0.0025,"nx":19,"ny":19,"refTime":"2026-04-05T21:00:00:Z","depth":"2","parameterNumber":2,"parameterNumberName":"U-component_of_CURRENTS"},"data":[0,0,0,0.2215,0.2216,0.2244,0.2244,0.226,0.226,0,0,0,0,0,0,0,0,0,0,0,0.2197,0.2198,0.2215,0.2216,0.2244,0.2244,0.2259,0.226,0,0,0,0,0,0,0,0,0,0,0,0.2197,0.2198,0.2198,0.2216,0.2244,0.2244,0.2259,0.224,0,0,0,0,0,0,0,0,0,0,0.2214,0.2202,0.2197,0.2198,0.2216,0.2244,0.2244,0.2239,0.2241,0.2245,0,0.2254,0,0.2266,0.2261,0.2262,0,0,0,0.2203,0.2201,0.2216,0.2198,0.2217,0.2244,0.2228,0.2241,0.2243,0.2248,0.2254,0.2255,0.2267,0.2262,0.2262,0.2325,0.2325,0,0,0.2202,0.2194,0.2214,0.2217,0.223,0.2227,0.2229,0.2242,0.2242,0.2254,0.2256,0.2267,0.2262,0.2262,0.2324,0.2325,0,0,0,0.2206,0.2193,0.2207,0.2216,0.2228,0.2228,0.223,0.2241,0.2249,0.2256,0.2267,0.2262,0.2262,0.2324,0.2325,0.2361,0,0,0,0.2204,0.2197,0.2207,0.2201,0.2228,0.2238,0.2229,0.2247,0.225,0.2267,0.2262,0.2263,0.2323,0.2324,0.2358,0.2368,0,0,0,0.2195,0.2196,0.2202,0.2201,0.2221,0.2238,0.2245,0.2248,0.2257,0.2262,0.2263,0.2323,0.2324,0.2356,0.2365,0.2423,0,0,0,0.2181,0.219,0.2202,0.2218,0.2221,0.2258,0.2245,0.2259,0.2263,0.2262,0.2323,0.2324,0.2356,0.2363,0.2421,0.2404,0.2414,0,0,0.2184,0.219,0.2202,0.2213,0.2246,0.2253,0.2294,0.2287,0.2285,0.2314,0.2315,0.2359,0.2365,0.2423,0.2472,0.248,0,0,0,0.2198,0.2205,0.2218,0.224,0.2269,0.2301,0.2309,0.2323,0.2347,0.2297,0.2373,0.2376,0.2411,0.2396,0.2403,0.233,0.233,0.233,0.233,0.2178,0.2203,0.2222,0.2258,0.229,0.2335,0.2366,0.239,0.2381,0.2403,0.2416,0.2497,0.2481,0.2486,0.2431,0.2431,0.2431,0.2431,0.2432,0.2175,0.2179,0.2225,0.2251,0.23,0.2341,0.242,0.2432,0.2502,0.2468,0.2501,0.2447,0.2495,0.2435,0.2434,0.2434,0.2433,0.2433,0.2433,0.2146,0.215,0.2175,0.2216,0.2269,0.2338,0.2418,0.248,0.2529,0.2567,0.2567,0.2566,0.252,0.2592,0.2592,0.2593,0.2593,0.2593,0.2593,0.2092,0.212,0.2132,0.218,0.2208,0.2288,0.2415,0.2491,0.2588,0.2608,0.2608,0.2551,0.2546,0.253,0.2598,0.2597,0.2597,0.2596,0.2596,0.2046,0.206,0.2073,0.2094,0.2163,0.2184,0.2348,0.2502,0.2605,0.2652,0.2643,0.264,0.2631,0.2624,0.2611,0.2696,0.2696,0.2696,0.2696,0.2005,0.2016,0.2017,0.2034,0.2083,0.2137,0.2179,0.2269,0.2446,0.2477,0.2486,0.2417,0.242,0.2394,0.2393,0.2372,0.2395,0.2394,0.2393,0.1974,0.1982,0.1961,0.198,0.2026,0.206,0.1999,0.1926,0.2094,0.2372,0.2335,0.2695,0.2617,0.2612,0.2588,0.258,0.2554,0,0]},{"header":{"parameterUnit":"m.s-1","parameterCategory":2,"la1":30.2992,"la2":30.254,"lo1":-89.0895,"lo2":-89.0443,"dy":0.0025,"dx":0.0025,"nx":19,"ny":19,"refTime":"2026-04-05T21:00:00:Z","depth":"2","parameterNumber":3,"parameterNumberName":"V-component_of_CURRENTS"},"data":[0,0,0,-0.0083,-0.0084,-0.0121,-0.0121,-0.0163,-0.0163,0,0,0,0,0,0,0,0,0,0,0,-0.0069,-0.0069,-0.0083,-0.0084,-0.0121,-0.0121,-0.0163,-0.0163,0,0,0,0,0,0,0,0,0,0,0,-0.0069,-0.0069,-0.0069,-0.0084,-0.0121,-0.0121,-0.0163,-0.0138,0,0,0,0,0,0,0,0,0,0,-0.0103,-0.0087,-0.0069,-0.0069,-0.0084,-0.0121,-0.0121,-0.0137,-0.0139,-0.0142,0,-0.0142,0,-0.0151,-0.0165,-0.0165,0,0,0,-0.0091,-0.0085,-0.0095,-0.0069,-0.0084,-0.0121,-0.0106,-0.0138,-0.0141,-0.0145,-0.0143,-0.0145,-0.0151,-0.0165,-0.0165,-0.0149,-0.0148,0,0,-0.0089,-0.0078,-0.0093,-0.0097,-0.0087,-0.0105,-0.0107,-0.014,-0.014,-0.0143,-0.0146,-0.0152,-0.0165,-0.0166,-0.0149,-0.0148,0,0,0,-0.0078,-0.0076,-0.0086,-0.0095,-0.01,-0.0106,-0.0109,-0.0139,-0.0142,-0.0146,-0.0153,-0.0165,-0.0166,-0.0149,-0.0149,-0.0081,0,0,0,-0.0077,-0.007,-0.0085,-0.0079,-0.01,-0.0121,-0.0106,-0.0139,-0.0143,-0.0152,-0.0165,-0.0166,-0.015,-0.0149,-0.0084,-0.0035,0,0,0,-0.0069,-0.0069,-0.0071,-0.0078,-0.0091,-0.012,-0.0126,-0.0141,-0.0147,-0.0165,-0.0166,-0.015,-0.0149,-0.0086,-0.004,-0.0003,0,0,0,-0.006,-0.0043,-0.0071,-0.0053,-0.0091,-0.008,-0.0126,-0.013,-0.014,-0.0166,-0.015,-0.0149,-0.0087,-0.0043,-0.0006,0.0052,0.0071,0,0,-0.003,-0.004,-0.0028,-0.0053,-0.0018,-0.0076,-0.0047,-0.0088,-0.0127,-0.0141,-0.0141,-0.0083,-0.0041,-0.0004,0.0108,0.0125,0,0,0,-0.0012,0.0001,0.0006,0.0016,0.0008,0.0013,-0.0034,-0.0055,-0.0077,-0.0128,-0.0082,-0.0057,-0.0036,-0.0008,0.0006,-0.0144,-0.0144,-0.0145,-0.0145,0.0051,0.0049,0.0086,0.0087,0.0092,0.007,0.0067,0.003,-0.0023,-0.0023,-0.0003,0.0074,0.0106,0.0117,-0.0014,-0.0014,-0.0014,-0.0013,-0.0013,0.012,0.0146,0.0149,0.018,0.018,0.0192,0.0162,0.0124,0.012,0.0062,0.0078,0.0062,0.0136,-0.0008,-0.0009,-0.001,-0.001,-0.0011,-0.0011,0.0172,0.0186,0.0197,0.0244,0.028,0.0264,0.032,0.0266,0.0196,0.0215,0.0226,0.0225,0.0122,0.0214,0.0214,0.0214,0.0215,0.0215,0.0215,0.0217,0.0234,0.0278,0.0313,0.0352,0.0402,0.0406,0.0414,0.0376,0.0322,0.0322,0.0151,0.0143,0.0135,0.0221,0.022,0.0219,0.0219,0.0218,0.0284,0.0282,0.0353,0.0396,0.0491,0.0593,0.0587,0.0612,0.0583,0.0578,0.0376,0.037,0.0356,0.0344,0.034,0.0475,0.0475,0.0475,0.0475,0.0327,0.0331,0.0427,0.0511,0.0619,0.0685,0.0811,0.0787,0.0667,0.057,0.0566,0.0523,0.0512,0.0502,0.0486,0.0483,0.0655,0.0655,0.0655,0.0379,0.0399,0.0477,0.0547,0.0672,0.0798,0.0907,0.0876,0.0703,0.0659,0.0567,0.0493,0.0416,0.0403,0.0371,0.0353,0.034,0,0]}],[{"header":{"parameterUnit":"m.s-1","parameterCategory":2,"la1":30.2992,"la2":30.254,"lo1":-89.0895,"lo2":-89.0443,"dy":0.0025,"dx":0.0025,"nx":19,"ny":19,"refTime":"2026-04-05T21:00:00:Z","depth":"4","parameterNumber":2,"parameterNumberName":"U-component_of_CURRENTS"},"data":[0,0,0,0.1593,0.1596,0.1732,0.1733,0.1832,0.1833,0,0,0,0,0,0,0,0,0,0,0,0.1552,0.1554,0.1593,0.1596,0.1732,0.1733,0.1832,0.1833,0,0,0,0,0,0,0,0,0,0,0,0.1552,0.1553,0.1555,0.1597,0.1732,0.1733,0.1832,0.1747,0,0,0,0,0,0,0,0,0,0,0.1624,0.1601,0.1553,0.1555,0.1598,0.1732,0.1733,0.1744,0.1752,0.175,0,0.1785,0,0.1809,0.1838,0.1838,0,0,0,0.1593,0.1594,0.1628,0.1555,0.1599,0.1732,0.167,0.1749,0.1758,0.1761,0.1787,0.1791,0.1811,0.1838,0.1839,0.1943,0.1943,0,0,0.1586,0.1576,0.1622,0.1635,0.1652,0.1666,0.1674,0.1755,0.1772,0.1787,0.1794,0.1812,0.1839,0.1839,0.1942,0.1943,0,0,0,0.1566,0.1571,0.1604,0.163,0.166,0.167,0.168,0.1769,0.1781,0.1795,0.1814,0.1839,0.184,0.1942,0.1943,0.1982,0,0,0,0.1562,0.156,0.1601,0.1596,0.1659,0.1727,0.1691,0.1775,0.1785,0.1813,0.1839,0.1841,0.1941,0.1942,0.1979,0.1988,0,0,0,0.1543,0.1557,0.1578,0.1596,0.1655,0.1727,0.1743,0.1778,0.1796,0.1838,0.1841,0.1941,0.1942,0.1977,0.1985,0.2032,0,0,0,0.152,0.1551,0.1578,0.1623,0.1654,0.1732,0.1743,0.1806,0.1845,0.184,0.1941,0.1943,0.1976,0.1983,0.203,0.1772,0,0,0,0.1537,0.1554,0.1577,0.1604,0.1669,0.1712,0.1791,0.1844,0.1863,0.1907,0.191,0.198,0.1985,0.2031,0.1853,0,0,0,0,0.1567,0.1589,0.1613,0.1665,0.1721,0.1789,0.1848,0.1881,0.195,0.1894,0.1996,0.1998,0.2026,0.187,0.1949,0.1949,0.1949,0.1949,0.1948,0.1562,0.1597,0.1642,0.1699,0.1758,0.1849,0.1908,0.1966,0.1979,0.2021,0.2042,0.2119,0.1956,0.206,0.206,0.206,0.2061,0.2061,0.2061,0.1569,0.1584,0.1657,0.1716,0.1796,0.1876,0.198,0.2016,0.211,0.2095,0.2121,0.1936,0.2065,0.2064,0.2064,0.2063,0.2063,0.2063,0.2062,0.1538,0.1547,0.1609,0.1696,0.1795,0.1898,0.1984,0.2075,0.2142,0.2182,0.2033,0.2154,0.2137,0.221,0.2211,0.2211,0.2211,0.2211,0.2211,0.1464,0.1523,0.1572,0.1673,0.1737,0.1843,0.1997,0.2053,0.2148,0.205,0.2206,0.217,0.2165,0.2147,0.2216,0.2215,0.2214,0.2214,0.2214,0.14,0.1444,0.1496,0.1558,0.1679,0.1728,0.1906,0.1944,0.1992,0.1965,0.1979,0.199,0.1953,0.1954,0.1927,0.1933,0.193,0.1927,0,0.1346,0.1372,0.143,0.1484,0.1533,0.1651,0.1643,0.1732,0.1812,0.1745,0.2015,0.203,0.2035,0.1995,0.199,0.1957,0,0,0,0.1304,0.133,0.134,0.1407,0.1448,0.15,0.1628,0.1593,0.1791,0.1755,0.1851,0.1871,0.2093,0.2228,0.2198,0.2192,0.2161,0,0]},{"header":{"parameterUnit":"m.s-1","parameterCategory":2,"la1":30.2992,"la2":30.254,"lo1":-89.0895,"lo2":-89.0443,"dy":0.0025,"dx":0.0025,"nx":19,"ny":19,"refTime":"2026-04-05T21:00:00:Z","depth":"4","parameterNumber":3,"parameterNumberName":"V-component_of_CURRENTS"},"data":[0,0,0,0.0102,0.0101,0.0065,0.0065,0.0022,0.0022,0,0,0,0,0,0,0,0,0,0,0,0.0116,0.0116,0.0102,0.0101,0.0065,0.0065,0.0022,0.0022,0,0,0,0,0,0,0,0,0,0,0,0.0116,0.0116,0.0116,0.0101,0.0065,0.0065,0.0022,0.0047,0,0,0,0,0,0,0,0,0,0,0.0081,0.0097,0.0116,0.0116,0.0101,0.0065,0.0065,0.0048,0.0045,0.0042,0,0.0042,0,0.0033,0.002,0.002,0,0,0,0.0094,0.0099,0.009,0.0116,0.0101,0.0065,0.0079,0.0047,0.0044,0.0039,0.0041,0.0039,0.0033,0.002,0.0019,0.0022,0.0022,0,0,0.0096,0.0107,0.0092,0.0088,0.0099,0.0081,0.0078,0.0045,0.0045,0.0041,0.0038,0.0032,0.0019,0.0019,0.0022,0.0022,0,0,0,0.0107,0.0109,0.0099,0.009,0.0085,0.008,0.0077,0.0046,0.0043,0.0038,0.0032,0.0019,0.0019,0.0021,0.0022,0.0075,0,0,0,0.0108,0.0115,0.0101,0.0106,0.0085,0.0065,0.0079,0.0046,0.0042,0.0032,0.0019,0.0018,0.0021,0.0021,0.0073,0.0116,0,0,0,0.0116,0.0116,0.0114,0.0107,0.0094,0.0065,0.006,0.0044,0.0038,0.002,0.0018,0.0021,0.0021,0.0071,0.0112,0.0135,0,0,0,0.0125,0.0134,0.0114,0.0124,0.0095,0.0096,0.006,0.0051,0.0039,0.0019,0.0021,0.0022,0.0071,0.0109,0.0133,0.0152,0,0,0,0.0143,0.0137,0.0143,0.0125,0.0146,0.01,0.0116,0.0079,0.0047,0.003,0.003,0.0074,0.0111,0.0134,0.0188,0,0,0,0,0.0154,0.0162,0.0164,0.017,0.016,0.0162,0.012,0.0102,0.008,0.0043,0.0072,0.0094,0.0107,0.0111,0.0025,0.0025,0.0025,0.0024,0.0024,0.0197,0.0194,0.0219,0.0218,0.022,0.02,0.0194,0.0162,0.012,0.0117,0.0135,0.0189,0.0195,0.0121,0.0121,0.0122,0.0122,0.0122,0.0122,0.0241,0.0259,0.0264,0.0285,0.0286,0.0293,0.0265,0.0235,0.0227,0.0183,0.0192,0.0164,0.0127,0.0126,0.0125,0.0125,0.0124,0.0124,0.0124,0.0277,0.0287,0.0298,0.0335,0.0365,0.0352,0.0392,0.0349,0.0288,0.0301,0.0289,0.023,0.0228,0.0297,0.0297,0.0297,0.0297,0.0298,0.0298,0.0307,0.0321,0.0358,0.0388,0.0423,0.0462,0.0464,0.046,0.0399,0.0369,0.032,0.0248,0.0242,0.0238,0.0302,0.0302,0.0301,0.0301,0.03,0.0348,0.0353,0.041,0.0449,0.0527,0.056,0.0565,0.0539,0.0535,0.0496,0.0394,0.0388,0.0372,0.0363,0.0362,0.0466,0.0467,0.0467,0,0.0376,0.0381,0.046,0.0531,0.0605,0.0621,0.0645,0.0626,0.0538,0.0525,0.0518,0.0404,0.0398,0.038,0.0373,0.0373,0,0,0,0.0408,0.0427,0.0489,0.0551,0.0635,0.065,0.0652,0.0632,0.0551,0.0545,0.048,0.0477,0.0405,0.0316,0.0278,0.0271,0.0262,0,0]}]]